Satellite: NOAA-17
Catalog number: 27453
Epoch time:      08353.42642094
Element set:     225
Inclination:      098.5118 deg
RA of node:       052.4984 deg
Eccentricity:    0.0010883
Arg of perigee:   292.4658 deg
Mean anomaly:     067.5384 deg
Mean motion:   14.24026797 rev/day
Decay rate:       1.73e-06 rev/day^2
Epoch rev:           33702
Checksum:              319

Satellite: NOAA-16
Catalog number: 26536
Epoch time:      08353.45095612
Element set:     215
Inclination:      099.1720 deg
RA of node:       346.8032 deg
Eccentricity:    0.0011211
Arg of perigee:   070.0454 deg
Mean anomaly:     290.1910 deg
Mean motion:   14.12505649 rev/day
Decay rate:       -5.9e-07 rev/day^2
Epoch rev:           42478
Checksum:              278

Satellite: OKEAN-0
Catalog number: 25860
Epoch time:      08353.07171130
Element set:     552
Inclination:      097.7670 deg
RA of node:       335.6601 deg
Eccentricity:    0.0001762
Arg of perigee:   060.6452 deg
Mean anomaly:     299.4930 deg
Mean motion:   14.73549342 rev/day
Decay rate:       -1.0e-08 rev/day^2
Epoch rev:           50647
Checksum:              285

Satellite: FENGYUN1
Catalog number: 25730
Epoch time:      08352.92327621
Element set:     640
Inclination:      098.7418 deg
RA of node:       322.6614 deg
Eccentricity:    0.0022928
Arg of perigee:   007.6599 deg
Mean anomaly:     352.4917 deg
Mean motion:   14.07903619 rev/day
Decay rate:       4.43e-06 rev/day^2
Epoch rev:           49481
Checksum:              315

Satellite: RESURS
Catalog number: 25394
Epoch time:      08353.74288029
Element set:      97
Inclination:      098.3623 deg
RA of node:       029.0632 deg
Eccentricity:    0.0002303
Arg of perigee:   035.9694 deg
Mean anomaly:     324.1640 deg
Mean motion:   14.24176886 rev/day
Decay rate:       -1.6e-07 rev/day^2
Epoch rev:           54271
Checksum:              299

Satellite: NOAA-15
Catalog number: 25338
Epoch time:      08353.42751139
Element set:     740
Inclination:      098.5708 deg
RA of node:       340.7494 deg
Eccentricity:    0.0009982
Arg of perigee:   221.4663 deg
Mean anomaly:     138.5798 deg
Mean motion:   14.24737966 rev/day
Decay rate:       1.41e-06 rev/day^2
Epoch rev:           55103
Checksum:              329

Satellite: NOAA-14
Catalog number: 23455
Epoch time:      08353.41697314
Element set:     438
Inclination:      098.9290 deg
RA of node:       065.5926 deg
Eccentricity:    0.0009100
Arg of perigee:   347.9339 deg
Mean anomaly:     012.1670 deg
Mean motion:   14.13753567 rev/day
Decay rate:        1.7e-07 rev/day^2
Epoch rev:           72038
Checksum:              309

Satellite: OKEAN-4
Catalog number: 23317
Epoch time:      08353.50441451
Element set:     776
Inclination:      082.5383 deg
RA of node:       143.0944 deg
Eccentricity:    0.0020642
Arg of perigee:   238.5274 deg
Mean anomaly:     121.3918 deg
Mean motion:   14.82659447 rev/day
Decay rate:        6.6e-07 rev/day^2
Epoch rev:           76559
Checksum:              312

Satellite: MET-2/21
Catalog number: 22782
Epoch time:      08352.52616060
Element set:     328
Inclination:      082.5478 deg
RA of node:       326.1218 deg
Eccentricity:    0.0023557
Arg of perigee:   133.2916 deg
Mean anomaly:     227.0209 deg
Mean motion:   13.83631298 rev/day
Decay rate:       -4.7e-07 rev/day^2
Epoch rev:           77248
Checksum:              304

Satellite: MET-3/5
Catalog number: 21655
Epoch time:      08353.79845919
Element set:     530
Inclination:      082.5548 deg
RA of node:       333.9466 deg
Eccentricity:    0.0012388
Arg of perigee:   274.3729 deg
Mean anomaly:     085.5977 deg
Mean motion:   13.17017617 rev/day
Decay rate:        5.1e-07 rev/day^2
Epoch rev:           83388
Checksum:              350

Satellite: NOAA-12
Catalog number: 21263
Epoch time:      08353.65651071
Element set:     947
Inclination:      098.7716 deg
RA of node:       355.6446 deg
Eccentricity:    0.0011791
Arg of perigee:   313.3111 deg
Mean anomaly:     046.7566 deg
Mean motion:   14.25558973 rev/day
Decay rate:        4.8e-07 rev/day^2
Epoch rev:           91471
Checksum:              318

Satellite: NOAA-11
Catalog number: 19531
Epoch time:      08353.31481032
Element set:     441
Inclination:      098.7926 deg
RA of node:       080.0274 deg
Eccentricity:    0.0010817
Arg of perigee:   264.9938 deg
Mean anomaly:     095.0048 deg
Mean motion:   14.14883982 rev/day
Decay rate:        7.1e-07 rev/day^2
Epoch rev:            4394
Checksum:              304

Satellite: NOAA-10
Catalog number: 16969
Epoch time:      08353.51436011
Element set:     417
Inclination:      098.7083 deg
RA of node:       014.9906 deg
Eccentricity:    0.0012406
Arg of perigee:   007.9589 deg
Mean anomaly:     352.1793 deg
Mean motion:   14.27375870 rev/day
Decay rate:        1.4e-07 rev/day^2
Epoch rev:           15773
Checksum:              312

/EX
SB KEPS @ AMSAT  $ORB08353.M
Orbital Elements  08353.MISC

HR AMSAT ORBITAL ELEMENTS FOR MANNED AND MISCELLANEOUS SATELLITES
FROM WA5QGD FORT WORTH,TX December 18, 2008
Send Subscribe/unsubscribe to KEPS at 
http://www.amsat.org/mailman/listinfo/keps
BID: ORB08353.M
TO ALL RADIO AMATEURS BT

Satellite: RS-30
Catalog number: 32953
Epoch time:      08353.57078489
Element set:     186
Inclination:      082.5025 deg
RA of node:       008.9285 deg
Eccentricity:    0.0018337
Arg of perigee:   209.4194 deg
Mean anomaly:     150.5859 deg
Mean motion:   12.42998866 rev/day
Decay rate:        1.0e-07 rev/day^2
Epoch rev:            2595
Checksum:              333

Satellite: CO-66
Catalog number: 32791
Epoch time:      08353.19227407
Element set:     222
Inclination:      097.9711 deg
RA of node:       052.3561 deg
Eccentricity:    0.0015100
Arg of perigee:   257.6967 deg
Mean anomaly:     102.2554 deg
Mean motion:   14.81360365 rev/day
Decay rate:        8.5e-07 rev/day^2
Epoch rev:            3461
Checksum:              290

Satellite: DO-64
Catalog number: 32789
Epoch time:      08352.22281659
Element set:     240
Inclination:      097.9725 deg
RA of node:       051.4639 deg
Eccentricity:    0.0014831
Arg of perigee:   263.0691 deg
Mean anomaly:     096.8831 deg
Mean motion:   14.81562847 rev/day
Decay rate:       5.07e-06 rev/day^2
Epoch rev:            3450
Checksum:              324

Satellite: AAUSAT2
Catalog number: 32788
Epoch time:      08351.86871699
Element set:     229
Inclination:      097.9689 deg
RA of node:       051.0449 deg
Eccentricity:    0.0014176
Arg of perigee:   264.9818 deg
Mean anomaly:     094.9755 deg
Mean motion:   14.81630967 rev/day
Decay rate:       2.25e-06 rev/day^2
Epoch rev:            3445
Checksum:              360

Satellite: COMPASS
Catalog number: 32787
Epoch time:      08352.83163847
Element set:     229
Inclination:      097.9690 deg
RA of node:       051.9724 deg
Eccentricity:    0.0014722
Arg of perigee:   261.6647 deg
Mean anomaly:     098.2881 deg
Mean motion:   14.81516683 rev/day
Decay rate:       2.22e-06 rev/day^2
Epoch rev:            3459
Checksum:              329

Satellite: CAPE1
Catalog number: 31130
Epoch time:      08352.91078084
Element set:     480
Inclination:      098.0183 deg
RA of node:       048.3639 deg
Eccentricity:    0.0103764
Arg of perigee:   126.2902 deg
Mean anomaly:     234.7937 deg
Mean motion:   14.52016635 rev/day
Decay rate:       -5.1e-07 rev/day^2
Epoch rev:            8838
Checksum:              293

Satellite: MAST
Catalog number: 31126
Epoch time:      08352.22559953
Element set:     482
Inclination:      098.0181 deg
RA of node:       049.1181 deg
Eccentricity:    0.0095624
Arg of perigee:   124.2336 deg
Mean anomaly:     236.7973 deg
Mean motion:   14.53465409 rev/day
Decay rate:        6.6e-07 rev/day^2
Epoch rev:            8860
Checksum:              305

Satellite: FALCON
Catalog number: 30776
Epoch time:      08351.77833660
Element set:     461
Inclination:      035.4330 deg
RA of node:       126.0151 deg
Eccentricity:    0.0000118
Arg of perigee:   328.6681 deg
Mean anomaly:     031.4028 deg
Mean motion:   15.03126089 rev/day
Decay rate:       2.52e-06 rev/day^2
Epoch rev:            9763
Checksum:              265

Satellite: CO-58
Catalog number: 28895
Epoch time:      08353.44617605
Element set:     192
Inclination:      098.0795 deg
RA of node:       242.8911 deg
Eccentricity:    0.0017915
Arg of perigee:   189.6511 deg
Mean anomaly:     170.4312 deg
Mean motion:   14.59724675 rev/day
Decay rate:        5.0e-08 rev/day^2
Epoch rev:           16736
Checksum:              336

Satellite: ISS
Catalog number: 25544
Epoch time:      08352.55733206
Element set:     876
Inclination:      051.6385 deg
RA of node:       156.6387 deg
Eccentricity:    0.0007626
Arg of perigee:   100.1805 deg
Mean anomaly:     014.8765 deg
Mean motion:   15.71585814 rev/day
Decay rate:     1.1020e-04 rev/day^2
Epoch rev:           57738
Checksum:              307

Satellite: PO-34
Catalog number: 25520
Epoch time:      08353.17810368
Element set:     144
Inclination:      028.4602 deg
RA of node:       026.9059 deg
Eccentricity:    0.0005470
Arg of perigee:   134.3007 deg
Mean anomaly:     225.8033 deg
Mean motion:   15.17272542 rev/day
Decay rate:       3.81e-06 rev/day^2
Epoch rev:           56113
Checksum:              267

Satellite: HUBBLE
Catalog number: 20580
Epoch time:      08353.79718393
Element set:     286
Inclination:      028.4683 deg
RA of node:       199.1166 deg
Eccentricity:    0.0004234
Arg of perigee:   189.7983 deg
Mean anomaly:     170.2492 deg
Mean motion:   15.00440514 rev/day
Decay rate:       4.10e-06 rev/day^2
Epoch rev:           82273
Checksum:              304

/EX





More information about the Keps mailing list